Flag for Switzerland Weather past 2 weeks in Arth, Schwyz, Switzerland

Now
36 °F

Chilly.


Feels Like: 32 °F
Forecast: 26 / 30 °F
Wind: 5 mph from South

Location: Altdorf

Current Time: Jan 28, 2015 at 1:24:04 PM

Latest Report: Jan 28, 2015 at 12:00 PM


Visibility: N/A

Pressure: 30.17 "Hg

Humidity: 63%

Dew point: 24 °F

Location of ArthLocation

Historic Weather in Arth — Graph

°F

Arth temperature yesterday

Maximum temperature yesterday: 38 °F (at 11:00 AM)
Minimum temperature yesterday: 31 °F (at 1:00 AM)
Average temperature yesterday: 36 °F

Past Weeks' High & Low Weather Summary

 TemperatureHumidityPressure
High58 °F (Jan 16, 11:00 AM)99% (Jan 27, 1:00 AM)30.49 "Hg (Jan 27, 1:00 AM)
Low24 °F (Jan 26, 6:00 AM)23% (Jan 13, 2:00 PM)29.62 "Hg (Jan 16, 3:00 PM)
Average37 °F76%30.06 "Hg
* Reported Jan 13 12:00 Noon — Jan 28 12:00 Noon, Arth, Weather by CustomWeather, © 2014

Note: Actual official high and low records may vary slightly from our data, if they occured in-between our weather recording intervals... More about our weather records

Advertising

Arth weather history for previous 24 hours

 ConditionsComfort  
Time TempWeatherWind HumidityBarometerVisibility
12:00 PM
Jan 28
36 °FChilly.5 mph63%30.17 "HgN/A
11:00 AM31 °FChilly.6 mph75%30.21 "HgN/A
10:00 AM28 °FScattered clouds.2 mph81%30.24 "Hg11 mi
9:00 AM29 °FChilly.2 mph79%30.25 "HgN/A
8:00 AM27 °FChilly.2 mph84%30.26 "HgN/A
7:00 AM27 °FPassing clouds.3 mph88%30.25 "Hg9 mi
6:00 AM30 °FChilly.5 mph79%30.24 "HgN/A
5:00 AM29 °FChilly.2 mph90%30.27 "HgN/A
4:00 AM35 °FOvercast.5 mph76%30.26 "Hg9 mi
3:00 AM35 °FChilly.3 mph77%30.27 "HgN/A
2:00 AM35 °FChilly.3 mph77%30.27 "HgN/A
1:00 AM35 °FSnow flurries. Overcast.2 mph76%30.28 "Hg9 mi
12:00 AM36 °FChilly.12 mph68%30.27 "HgN/A
11:00 PM
Jan 27
37 °FChilly.14 mph65%30.27 "HgN/A
10:00 PM37 °FOvercast.17 mph64%30.27 "Hg9 mi
9:00 PM37 °FChilly.15 mph66%30.27 "HgN/A
8:00 PM38 °FChilly.16 mph61%30.27 "HgN/A
7:00 PM37 °FOvercast.16 mph66%30.26 "Hg9 mi
6:00 PM38 °FChilly.16 mph62%30.26 "HgN/A
5:00 PM37 °FChilly.17 mph67%30.26 "HgN/A
4:00 PM37 °FOvercast.17 mph66%30.25 "Hg11 mi
3:00 PM38 °FChilly.20 mph65%30.24 "HgN/A
2:00 PM38 °FChilly.20 mph66%30.25 "HgN/A
1:00 PM38 °FOvercast.18 mph68%30.26 "Hg9 mi
Weather by CustomWeather, © 2014

See weather overviewHow to use our weather pages